User: anonymous   Login
Location: Unspecified
(0.0000°N, 0.0000°E)
Time: 20:18:14
(UTC+00:00)
Language:

GONETS M04 - Orbit

View from above orbital plane
View from above orbital plane
View from above satellite
View from above satellite

Ground track
Ground track

The orbit data is extracted from the following two-line orbital elements,

1 38736U 12041D   18017.15235437  .00000039  00000-0  21029-3 0  9991
2 38736  82.4780 190.6268 0023870 284.6343  75.2091 12.43800234248331
Epoch (UTC): 17 January 2018 03:39:23
Eccentricity: 0.0023870
inclination: 82.4780°
perigee height: 1472 km
apogee height: 1509 km
right ascension of ascending node: 190.6268°
argument of perigee: 284.6343°
revolutions per day: 12.43800234
mean anomaly at epoch: 75.2091°
orbit number at epoch: 24833

The dashed part of the orbit path shows where the satellite is in the earth's shadow,  

DLR